Regional Weather Roundup
Issued by NWS Cleveland, OH

Home | Current Version | Previous Version | Graphics & Text | Print | Product List | Glossary On
Versions: 1 2 3 4 5 6 7 8 9 10 11 12 13 14 15 16 17 18 19 20 21 22 23 24 25 26 27 28 29 30 31 32 33 34 35 36 37 38 39 40 41 42 43 44 45 46 47 48 49 50
000
ASUS41 KCLE 230700
RWRCLE
OHIO REGIONAL WEATHER ROUNDUP
NATIONAL WEATHER SERVICE WILMINGTON, OH
300 AM EDT WED JUL 23 2014

NOTE: "FAIR" INDICATES FEW OR NO CLOUDS BELOW 12,000 FEET WITH NO
SIGNIFICANT WEATHER AND/OR OBSTRUCTIONS TO VISIBILITY.

OHZ001>008-015>018-024>027-034-035-043-044-230800-
   NORTHWEST OHIO

CITY           SKY/WX    TMP DP  RH WIND       PRES   REMARKS
DEFIANCE       TSTM      75  70  84 SW10      29.95F
FINDLAY        CLOUDY    76  67  73 SW10      29.95F
TOLEDO EXPRESS TSTM      72  71  97 W16G24    29.93F VSB 3/4
TOLEDO METCALF HVY RAIN  74  70  87 S14       29.93F FOG
LIMA           CLOUDY    76  67  73 SW8       29.99F
$$

OHZ009>014-019>023-028>033-038-089-230800-
   NORTHEAST OHIO

CITY           SKY/WX    TMP DP  RH WIND       PRES   REMARKS
CLE-HOPKINS    MOCLDY    76  66  71 SW10      29.96F
CLE-LAKEFRONT  CLEAR     80  66  62 SW13      29.92F
CUY CO. ARPT   NOT AVBL
LORAIN-ELYRIA  MOCLDY    76  67  73 SW7       29.96F
ASHTABULA      PTCLDY    72  68  87 SW5       29.98F
AKRON-CANTON   CLOUDY    75  69  81 SW5       30.00F
WOOSTER        NOT AVBL
MANSFIELD      PTCLDY    72  67  84 SW5       30.00F
YOUNGSTOWN     PTCLDY    74  69  85 SW6       30.00F
$$

OHZ042-051>053-060>062-070>072-077>081-230800-
  SOUTHWEST OHIO

CITY           SKY/WX    TMP DP  RH WIND       PRES   REMARKS
CINC-COVINGTON MOCLDY    72  69  90 W3        30.04S
CINC-LUNKEN    PTCLDY    69  69 100 CALM      30.03S
HAMILTON       PTCLDY    70  69  97 CALM      30.04S
DAYTON         NOT AVBL
WRIGHT-PAT AFB PTCLDY    72  67  86 S3        30.01F
DAYTON GENERAL MOCLDY    76  69  79 CALM      30.03F
WILMINGTON     CLEAR     71  67  87 CALM      30.04S
$$

OHZ036-037-039>041-045>050-054>059-063>069-073>076-082>088-230800-
  CENTRAL AND SOUTHEAST OHIO

CITY           SKY/WX    TMP DP  RH WIND       PRES   REMARKS
COLUMBUS       CLEAR     76  69  79 CALM      30.00F
OSU AIRPORT    CLEAR     72  67  84 SW5       30.00F
BOLTON FIELD   NOT AVBL
RICKENBACK AFB NOT AVBL
NEWARK         CLEAR     70  67  90 CALM      30.00F FOG
MARION         PTCLDY    75  66  73 W9        29.99F
LANCASTER      MOCLDY    72  69  90 S3        30.02F
ZANESVILLE     MOCLDY    73  70  90 S3        30.01F
NEW PHILLY     PTCLDY    70  69  97 SE3       30.00F FOG
$$


USA.gov is the U.S. government's official web portal to all federal, state and local government web resources and services.